Погода в Селихове

Россия / Орловская область     53°13′13″N   35°45′14″E
темп.,
°C
ветер,
м/с
пор.,
м/с
влажн.,
%
обл.,
%
осадки,
мм/ч
давл.,
гПа
погр.,
м
19 мая, ср
ср1900:00+15юв379576 0.0 1003266
03:00+13юв3796100 0.1 1003178
06:00+14ююв499416 0.1 1004357
09:00+17ююв588099 0.1 1004707
12:00+19ююв6867100 0.3 10051394
15:00+19ююв5669100 0.9 10051098
18:00+17ююв3576100 0.8 1005551
21:00+13ююв2395100 1.7 100596
20 мая, чт
чт2000:00+13св3598100 0.1 1003188
03:00+13в589599 1.7 999547
06:00+11ююв71396100 0.8 1001544
09:00+12ююв698999 0.9 1002650
12:00+12ю61095100 0.8 1003684
15:00+12ююз5994100 1.6 1004559
18:00+11юз61194100 0.4 1006632
21:00+10зюз61195100 0.5 1007495
21 мая, пт
пт2100:00+9зюз6119198 0.0 1009519
03:00+8зюз61294100 0.0 1010589
06:00+8з61291100 0.0 1012486
09:00+12зсз5874100 0.0 1014686
12:00+16з4560100 0.0 10151294
15:00+18зюз3452100 0.0 10151819
18:00+17зюз346699 0.1 1016191
21:00+12з227580 0.1 101713
22 мая, сб
сб2200:00+10с3580100 0.0 101884
03:00+8с348197 0.0 101948
06:00+9ссв368514 0.0 1019143
09:00+14всв466914 0.0 1019453
12:00+18в3463100 0.0 10191328
15:00+19вюв435993 0.1 10171588
18:00+18в24690 0.0 1017507
21:00+13юв359030 0.0 101788
23 мая, вс
вс2300:00+11в3592100 0.0 101679
03:00+10всв3396100 0.0 101562
06:00+11всв3895100 0.0 1013219
09:00+15в4584100 0.0 1012473
12:00+19юв3377100 0.0 1010851
15:00+19юз2379100 0.1 1008621
18:00+19юз2284100 0.1 100894
21:00+16зсз349111 0.8 100853